Location: New Canada
(47.1017°N, 68.5042°W)
Time: 13:43:05
(UTC+00:00)

N. Korean satellite - Pass Details

Date: 07 December 2022
Orbit: 407 x 441 km, 97.3° (Epoch: 05 February)

Event Time Altitude Azimuth Distance (km) Brightness Sun altitude
Rises 21:18:45 0° 180° (S) 2,461 10.5 -5.8°
Reaches altitude 10° 21:20:49 10° 186° (S) 1,601 9.7 -6.1°
Maximum altitude 21:24:08 45° 261° (W) 641 7.8 -6.7°
Drops below altitude 10° 21:27:32 10° 336° (NNW) 1,636 9.2 -7.2°
Sets 21:29:40 0° 342° (NNW) 2,521 10.1 -7.5°
